Weather History for Nome, AK

Change the Weather History Date:

Friday, January 10, 2014

  Actual Average Record
Temperature  
Mean Temperature 13 °F -  
Max Temperature 18 °F 13 °F 39 °F (2011)
Min Temperature 7 °F -3 °F -32 °F (1954)
Degree Days  
Heating Degree Days 52 60  
Month to date heating degree days 435 593  
Since 1 July heating degree days 5799 6411  
Cooling Degree Days 0    
Month to date cooling degree days 0  
Year to date cooling degree days 0  
Moisture  
Dew Point 1 °F    
Average Humidity 0    
Maximum Humidity 0    
Minimum Humidity 0    
Precipitation  
Precipitation T in 0.04 in 0.36 in (2007)
Month to date precipitation 0.28 0.33  
Year to date precipitation 0.28 0.33  
Snow  
Snow T in 0.40 in 9.70 in (2007)
Month to date snowfall 3.9 4.4  
Since 1 July snowfall 36.9 36.2  
Snow Depth 18.00 in    
Sea Level Pressure  
Sea Level Pressure 29.62 in    
Wind  
Wind Speed 11 mph (NE)    
Max Wind Speed 22 mph    
Max Gust Speed 26 mph    
Visibility 10 miles    
Events Snow    
T = Trace of Precipitation, MM = Missing Value Source: NWS Daily Summary

Daily Weather History Graph

Daily Weather History Graph

Search for Another Location

Airport:

Trip Planner

Search our weather history database for the weather conditions in past years. The results will help you decide how hot, cold, wet, or windy it might be!

Date:

Astronomy

Jan. 10, 2014 Rise Set
Actual Time 11:44 AM AKST 4:35 PM AKST
Civil Twilight 10:31 AM AKST 5:48 PM AKST
Nautical Twilight 9:24 AM AKST 6:55 PM AKST
Astronomical Twilight 8:25 AM AKST 7:54 PM AKST
Moon 1:25 PM AKST (1/10) 6:21 AM AKST (1/10)
Length of Visible Light 7h 16m
Length of Day
4h 51m
Waxing Gibbous, 76% of the Moon is Illuminated
Jan 10
Waxing Gibbous
Jan 15
Full
Jan 23
Last Quarter
Jan 30
New
Feb 6
First Quarter

Hourly Weather History & Observations

Time (AKST) Temp. Windchill Dew Point Humidity Pressure Visibility Wind Dir Wind Speed Gust Speed Precip Events Conditions
12:53 AM 18.0 °F 7.7 °F 12.0 °F 78% 29.55 in 10.0 mi NE 8.1 mph - 0.00 in   Overcast
1:53 AM 16.0 °F 3.6 °F 9.0 °F 74% 29.57 in 10.0 mi NE 10.4 mph - N/A   Overcast
2:53 AM 15.1 °F 3.3 °F 8.1 °F 74% 29.58 in 10.0 mi NE 9.2 mph - N/A   Overcast
3:53 AM 15.1 °F 5.2 °F 7.0 °F 70% 29.60 in 10.0 mi North 6.9 mph - N/A   Overcast
4:53 AM 12.0 °F 4.1 °F 5.0 °F 73% 29.61 in 10.0 mi North 4.6 mph - N/A   Partly Cloudy
5:53 AM 12.0 °F - 5.0 °F 73% 29.62 in 10.0 mi Calm Calm - N/A   Clear
6:53 AM 10.9 °F 4.7 °F 5.0 °F 77% 29.63 in 10.0 mi NNE 3.5 mph - N/A   Scattered Clouds
7:53 AM 14.0 °F 0.5 °F 5.0 °F 67% 29.63 in 10.0 mi NE 11.5 mph - N/A   Scattered Clouds
8:53 AM 12.9 °F 0.7 °F 5.0 °F 71% 29.63 in 10.0 mi NE 9.2 mph - N/A   Mostly Cloudy
9:53 AM 14.0 °F 3.9 °F 5.0 °F 67% 29.65 in 10.0 mi ENE 6.9 mph - N/A   Overcast
10:53 AM 12.9 °F -1.6 °F 1.9 °F 62% 29.65 in 10.0 mi NE 12.7 mph - N/A   Mostly Cloudy
11:53 AM 10.9 °F 0.2 °F -0.0 °F 61% 29.66 in 10.0 mi NE 6.9 mph - N/A   Mostly Cloudy
12:53 PM 12.0 °F 4.1 °F -2.0 °F 53% 29.67 in 10.0 mi NNE 4.6 mph - N/A   Mostly Cloudy
1:53 PM 12.9 °F -0.2 °F -0.9 °F 54% 29.66 in 10.0 mi NE 10.4 mph - N/A   Scattered Clouds
2:53 PM 12.0 °F -3.4 °F -0.9 °F 56% 29.66 in 10.0 mi NE 13.8 mph - N/A   Scattered Clouds
3:53 PM 10.0 °F -0.9 °F -2.9 °F 56% 29.66 in 10.0 mi NE 6.9 mph - N/A   Partly Cloudy
4:53 PM 10.0 °F -8.6 °F -2.9 °F 56% 29.64 in 10.0 mi NE 19.6 mph - N/A Snow Low Drifting Snow
5:53 PM 8.1 °F -9.6 °F -4.0 °F 58% 29.64 in 10.0 mi NE 16.1 mph - N/A Snow Low Drifting Snow
6:53 PM 7.0 °F -9.8 °F -4.0 °F 61% 29.64 in 10.0 mi NNE 13.8 mph - N/A Snow Low Drifting Snow
7:53 PM 10.0 °F -8.1 °F -4.0 °F 53% 29.62 in 10.0 mi NE 18.4 mph - N/A Snow Low Drifting Snow
8:53 PM 10.0 °F -8.6 °F -5.1 °F 51% 29.60 in 10.0 mi NNE 19.6 mph - N/A Snow Blowing Snow
9:53 PM 10.0 °F -7.6 °F -5.1 °F 51% 29.60 in 10.0 mi NE 17.3 mph - N/A Snow Low Drifting Snow
10:53 PM 10.0 °F -1.9 °F -6.0 °F 48% 29.60 in 10.0 mi NNE 8.1 mph - N/A   Scattered Clouds
11:53 PM 9.0 °F -10.0 °F -5.1 °F 53% 29.58 in 10.0 mi NE 19.6 mph - N/A Snow Blowing Snow